EW7906 Weather Reports


time (UTC)temp
C
wind
direction
speed
KPH
gust
KPH
rain 1hr
cm
rain 24hr
cm
rain mn
cm
humidity
%
barometer
mb
20260905123635 61 181 0.0 0.0 0.00 0.00 0.00 100 1013.9
20260905123127 61 181 0.0 0.0 0.00 0.00 0.00 100 1013.9
20260905122617 61 181 0.0 0.0 0.00 0.00 0.00 100 1013.9
20260905122117 61 181 0.0 0.0 0.00 0.00 0.00 100 1013.9
20260905121554 61 181 0.0 0.0 0.00 0.00 0.00 100 1013.9
20260905121041 61 181 0.0 0.0 0.00 0.00 0.00 100 1013.8
20260905120539 61 181 0.0 0.0 0.00 0.00 0.00 100 1013.8
20260905120248 61 181 0.0 0.0 0.00 0.00 0.00 100 1013.8
20260905115512 61 181 0.0 0.0 0.00 0.00 0.00 100 1013.6
20260905115002 61 181 0.0 0.0 0.00 0.00 0.00 100 1013.5
20260905114457 61 181 0.0 0.0 0.00 0.00 0.00 100 1013.5
20260905113935 61 181 0.0 0.0 0.00 0.00 0.00 100 1013.5
20260905113407 61 181 0.0 0.0 0.00 0.00 0.00 100 1013.5
20260905113138 61 181 0.0 0.0 0.00 0.00 0.00 95 1013.3
20260905112629 61 181 0.0 0.0 0.00 0.00 0.00 92 1013.3
20260905111856 61 181 0.0 0.0 0.00 0.00 0.00 92 1013.4
20260905111604 61 181 0.0 0.0 0.00 0.00 0.00 92 1013.4
20260905110829 61 181 0.0 0.0 0.00 0.00 0.00 91 1013.3
20260905110326 61 181 0.0 0.0 0.00 0.00 0.00 45 1013.3
20260905105828 61 181 0.0 0.0 0.00 0.00 0.00 41 1013.2
20260905105324 61 181 0.0 0.0 0.00 0.00 0.00 41 1013.2
20260905104817 61 181 0.0 0.0 0.00 0.00 0.00 33 1013.2
20260905104254 61 181 0.0 0.0 0.00 0.00 0.00 30 1013.2
20260905103731 61 181 0.0 0.0 0.00 0.00 0.00 26 1013.2
20260905103223 61 181 0.0 0.0 0.00 0.00 0.00 23 1013.2
20260905102713 61 181 0.0 0.0 0.00 0.00 0.00 19 1013.2
20260905102212 61 181 0.0 0.0 0.00 0.00 0.00 17 1013.2
20260905101712 61 181 0.0 0.0 0.00 0.00 0.00 15 1013.3
20260905101212 61 181 0.0 0.0 0.00 0.00 0.00 15 1013.2
20260905100706 61 181 0.0 0.0 0.00 0.00 0.00 13 1013.2
20260905100204 61 181 0.0 0.0 0.00 0.00 0.00 10 1013.1
20260905095658 61 181 0.0 0.0 0.00 0.00 0.00 8 1013.1
20260905095158 61 181 0.0 0.0 0.00 0.00 0.00 7 1013.0
20260905094658 61 181 0.0 0.0 0.00 0.00 0.00 7 1013.0
20260905094145 61 181 0.0 0.0 0.00 0.00 0.00 6 1013.0
20260905093629 61 181 0.0 0.0 0.00 0.00 0.00 5 1013.0
20260905093356 61 181 0.0 0.0 0.00 0.00 0.00 5 1013.0
20260905092857 61 181 0.0 0.0 0.00 0.00 0.00 4 1013.0
20260905092106 61 181 0.0 0.0 0.00 0.00 0.00 4 1013.0
20260905091545 61 181 0.0 0.0 0.00 0.00 0.00 3 1013.0
20260905091044 61 181 0.0 0.0 0.00 0.00 0.00 2 1013.0
20260905090809 61 181 0.0 0.0 0.00 0.00 0.00 2 1013.1
20260905090530 61 181 0.0 0.0 0.00 0.00 0.00 1 1013.0
20260905085525 61 181 0.0 0.0 0.00 0.00 0.00 1 1013.1
20260905085025 61 181 0.0 0.0 0.00 0.00 0.00 100 1013.1
20260905084502 61 181 0.0 0.0 0.00 0.00 0.00 100 1013.2
20260905084214 61 181 0.0 0.0 0.00 0.00 0.00 100 1013.2
20260905083428 61 181 0.0 4.8 0.00 0.00 0.00 100 1013.2
20260905082927 62 181 0.0 4.8 0.00 0.00 0.00 100 1013.2
20260905082417 62 125 0.0 1.6 0.00 0.00 0.00 100 1013.2
20260905082148 62 125 0.0 9.7 0.00 0.00 0.00 100 1013.3
20260905081647 62 125 1.6 9.7 0.00 0.00 0.00 100 1013.3
20260905080913 62 174 0.0 0.0 0.00 0.00 0.00 100 1013.3
20260905080403 62 174 0.0 0.0 0.00 0.00 0.00 100 1013.5
20260905075848 61 174 0.0 0.0 0.00 0.00 0.00 100 1013.4
20260905075838 62 174 0.0 0.0 0.00 0.00 0.00 100 1013.4
20260905074829 62 174 0.0 0.0 0.00 0.00 0.00 100 1013.5
20260905074326 62 174 0.0 0.0 0.00 0.00 0.00 100 1013.5
20260905073821 62 174 0.0 0.0 0.00 0.00 0.00 100 1013.6
20260905073312 62 174 0.0 0.0 0.00 0.00 0.00 100 1013.6
20260905072813 62 174 0.0 0.0 0.00 0.00 0.00 100 1013.8
20260905072258 62 174 0.0 0.0 0.00 0.00 0.00 100 1013.8
20260905071739 62 174 0.0 1.6 0.00 0.00 0.00 100 1013.9
20260905071218 62 174 0.0 12.9 0.00 0.00 0.00 100 1013.9
20260905070654 62 174 0.0 12.9 0.00 0.00 0.00 100 1014.0
20260905070147 62 201 0.0 6.4 0.00 0.00 0.00 100 1014.0
20260905065648 62 201 0.0 11.3 0.00 0.00 0.00 100 1014.0
20260905065144 62 201 6.4 11.3 0.00 0.00 0.00 100 1014.1
20260905064642 62 158 0.0 6.4 0.00 0.00 0.00 100 1014.0
20260905064136 62 158 0.0 12.9 0.00 0.00 0.00 100 1014.0
20260905063630 62 136 0.0 12.9 0.00 0.00 0.00 100 1014.0
20260905063125 62 168 0.0 12.9 0.00 0.00 0.00 100 1014.0
20260905062625 62 150 1.6 12.9 0.00 0.00 0.00 100 1014.0
20260905062124 62 150 0.0 9.7 0.00 0.00 0.00 100 1014.0
20260905061612 62 157 3.2 9.7 0.00 0.00 0.00 100 1014.1
20260905061344 62 139 0.0 11.3 0.00 0.00 0.00 100 1014.1
20260905060611 62 153 0.0 11.3 0.00 0.00 0.00 100 1014.1
20260905060049 62 139 0.0 8.0 0.00 0.00 0.00 100 1014.1
20260905060030 62 81 0.0 8.0 0.00 0.00 0.00 100 1014.1
20260905055257 62 210 0.0 6.4 0.00 0.00 0.00 100 1014.1
20260905054520 62 210 1.6 8.0 0.00 0.00 0.00 100 1014.0
20260905054012 62 140 0.0 8.0 0.00 0.00 0.00 100 1014.0
20260905053501 62 125 0.0 6.4 0.00 0.00 0.00 100 1014.0
20260905053230 62 161 0.0 3.2 0.00 0.00 0.00 100 1014.0
20260905052436 62 167 0.0 0.0 0.00 0.00 0.00 100 1014.1
20260905052144 62 167 0.0 0.0 0.00 0.00 0.00 100 1014.1
20260905051353 62 167 0.0 6.4 0.00 0.00 0.00 100 1014.1
20260905050832 62 167 4.8 6.4 0.00 0.00 0.00 100 1014.1
20260905050811 62 156 0.0 4.8 0.00 0.00 0.00 100 1014.1
20260905045808 62 132 0.0 8.0 0.00 0.00 0.00 100 1014.1
20260905045257 62 191 0.0 8.0 0.00 0.00 0.00 100 1014.0
20260905044746 62 146 0.0 9.7 0.00 0.00 0.00 100 1014.1
20260905044517 62 158 0.0 11.3 0.00 0.00 0.00 100 1014.1
20260905044351 62 181 6.4 11.3 0.00 0.00 0.00 100 1013.9
20260905043237 62 177 0.0 8.0 0.00 0.00 0.00 100 1014.0
20260905043009 62 139 0.0 14.5 0.00 0.00 0.00 100 1013.9
20260905042237 62 144 0.0 14.5 0.00 0.00 0.00 100 1014.0
20260905041730 62 144 3.2 9.7 0.00 0.00 0.00 100 1014.0
20260905041659 62 101 0.0 11.3 0.00 0.00 0.00 100 1013.9
20260905040657 62 136 4.8 11.3 0.00 0.00 0.00 100 1014.0
20260905040150 62 151 0.0 9.7 0.00 0.00 0.00 100 1013.9
20260905035647 62 129 0.0 4.8 0.00 0.00 0.00 100 1013.8
20260905035143 62 129 0.0 4.8 0.00 0.00 0.00 100 1013.9
20260905034641 62 129 0.0 4.8 0.00 0.00 0.00 100 1013.8
20260905034407 62 104 1.6 9.7 0.00 0.00 0.00 100 1013.9
20260905033630 62 123 0.0 9.7 0.00 0.00 0.00 100 1013.8
20260905033130 62 118 0.0 1.6 0.00 0.00 0.00 100 1013.8
20260905032625 62 118 0.0 4.8 0.00 0.00 0.00 100 1013.6
20260905032115 62 118 1.6 4.8 0.00 0.00 0.00 100 1013.6
20260905031606 62 188 0.0 0.0 0.00 0.00 0.00 100 1013.6
20260905031057 62 188 0.0 0.0 0.00 0.00 0.00 100 1013.6
20260905030557 62 188 0.0 0.0 0.00 0.00 0.00 100 1013.5
20260905030057 62 188 0.0 0.0 0.00 0.00 0.00 100 1013.4
20260905025827 62 188 0.0 0.0 0.00 0.00 0.00 100 1013.5
20260905025057 62 188 0.0 0.0 0.00 0.00 0.00 100 1013.3
20260905024652 62 188 0.0 4.8 0.00 0.00 0.00 100 1013.2
20260905023526 62 188 0.0 4.8 0.00 0.00 0.00 100 1013.2
20260905023003 62 139 0.0 0.0 0.00 0.00 0.00 100 1013.2
20260905022501 62 139 0.0 3.2 0.00 0.00 0.00 100 1013.1
20260905022001 62 139 0.0 6.4 0.00 0.00 0.00 100 1013.0
20260905021457 62 157 0.0 6.4 0.00 0.00 0.00 100 1013.0
20260905020955 62 115 0.0 0.0 0.00 0.00 0.00 100 1012.9
20260905020433 62 115 0.0 9.7 0.00 0.00 0.00 100 1012.9
20260905015929 62 115 4.8 11.3 0.00 0.00 0.00 100 1012.8
20260905015428 62 137 0.0 11.3 0.00 0.00 0.00 100 1012.8
20260905014917 62 167 4.8 9.7 0.00 0.00 0.00 100 1012.8
20260905014416 62 158 0.0 9.7 0.00 0.00 0.00 100 1012.8
20260905013913 62 130 0.0 8.0 0.00 0.00 0.00 100 1012.8
20260905013357 62 174 3.2 12.9 0.00 0.00 0.00 100 1012.8
20260905012843 62 101 1.6 12.9 0.00 0.00 0.00 100 1012.5
20260905012323 62 172 0.0 9.7 0.00 0.00 0.00 100 1012.5
20260905011802 62 116 0.0 4.8 0.00 0.00 0.00 100 1012.5
20260905011256 62 116 0.0 11.3 0.00 0.00 0.00 100 1012.4
20260905010756 62 170 8.0 11.3 0.00 0.00 0.00 100 1012.3
20260905010257 62 111 4.8 8.0 0.00 0.00 0.00 100 1012.2
20260905005757 63 133 3.2 6.4 0.00 0.00 0.00 100 1012.1
20260905005243 63 165 0.0 9.7 0.00 0.00 0.00 100 1012.1
20260905004743 63 147 0.0 14.5 0.00 0.00 0.00 100 1012.1
20260905004243 63 126 8.0 14.5 0.00 0.00 0.00 100 1012.1
20260905003719 63 139 0.0 9.7 0.00 0.00 0.00 100 1012.0
20260905003157 63 158 4.8 12.9 0.00 0.00 0.00 100 1012.0
20260905002928 63 111 4.8 12.9 0.00 0.00 0.00 100 1011.8
20260905002428 63 151 4.8 11.3 0.00 0.00 0.00 100 1011.8
20260905001912 63 118 6.4 16.1 0.00 0.00 0.00 100 1011.8
20260905001143 63 140 6.4 16.1 0.00 0.00 0.00 100 1011.7
20260905001138 63 105 3.2 16.1 0.00 0.00 0.00 100 1011.8
20260905000139 63 171 8.0 16.1 0.00 0.00 0.00 100 1011.7
20260904235639 63 144 1.6 17.7 0.00 0.00 0.00 100 1011.6
20260904235139 63 171 8.0 17.7 0.00 0.00 0.00 100 1011.6
20260904234637 63 156 8.0 17.7 0.00 0.00 0.00 100 1011.5
20260904234135 63 144 6.4 16.1 0.00 0.00 0.00 100 1011.5
20260904233903 63 161 6.4 17.7 0.00 0.00 0.00 100 1011.4
20260904233628 63 170 9.7 20.9 0.00 0.00 0.00 100 1011.3
20260904232626 63 147 6.4 20.9 0.00 0.00 0.00 100 1011.3
20260904232120 63 154 9.7 16.1 0.00 0.00 0.00 100 1011.4
20260904231620 63 147 3.2 14.5 0.00 0.00 0.00 100 1011.4
20260904231119 63 139 8.0 14.5 0.00 0.00 0.00 100 1011.5
20260904230619 63 158 6.4 14.5 0.00 0.00 0.00 100 1011.5
20260904230118 63 165 8.0 14.5 0.00 0.00 0.00 100 1011.5
20260904225616 63 146 8.0 12.9 0.00 0.00 0.00 100 1011.6
20260904225117 63 184 8.0 12.9 0.00 0.00 0.00 100 1011.6
20260904224616 63 102 4.8 14.5 0.00 0.00 0.00 100 1011.6
20260904224116 63 167 6.4 14.5 0.00 0.00 0.00 100 1011.5
20260904223615 64 156 6.4 16.1 0.00 0.00 0.00 100 1011.6
20260904223117 63 146 9.7 17.7 0.00 0.00 0.00 100 1011.8
20260904222617 64 127 8.0 17.7 0.00 0.00 0.00 100 1011.8
20260904222115 63 135 6.4 16.1 0.00 0.00 0.00 100 1011.8
20260904221615 63 194 9.7 16.1 0.00 0.00 0.00 100 1011.8
20260904221114 64 171 0.0 16.1 0.00 0.00 0.00 100 1011.7
20260904220610 64 147 3.2 16.1 0.00 0.00 0.00 100 1011.8
20260904220058 63 168 9.7 16.1 0.00 0.00 0.00 100 1011.9
20260904215828 63 137 6.4 17.7 0.00 0.00 0.00 100 1011.9
20260904215057 63 208 9.7 17.7 0.00 0.00 0.00 100 1011.9
20260904214829 63 119 3.2 16.1 0.00 0.00 0.00 100 1012.0
20260904214059 64 181 9.7 14.5 0.00 0.00 0.00 100 1012.1
20260904213558 63 161 8.0 14.5 0.00 0.00 0.00 100 1012.1
20260904213057 64 188 3.2 16.1 0.00 0.00 0.00 100 1012.1
20260904212547 64 156 6.4 16.1 0.00 0.00 0.00 100 1012.2
20260904212046 64 172 8.0 14.5 0.00 0.00 0.00 100 1012.3
20260904211547 64 201 8.0 12.9 0.00 0.00 0.00 100 1012.3
20260904211045 64 199 8.0 14.5 0.00 0.00 0.00 100 1012.4
20260904210815 64 171 6.4 17.7 0.00 0.00 0.00 100 1012.5
20260904210045 63 132 6.4 17.7 0.00 0.00 0.00 100 1012.5
20260904205544 63 149 9.7 16.1 0.00 0.00 0.00 100 1012.5
20260904205044 64 137 3.2 16.1 0.00 0.00 0.00 100 1012.5
20260904204534 63 115 8.0 16.1 0.00 0.00 0.00 100 1012.8
20260904204033 63 116 4.8 14.5 0.00 0.00 0.00 100 1012.9
20260904203532 63 163 9.7 14.5 0.00 0.00 0.00 100 1012.8
20260904203030 63 135 9.7 14.5 0.00 0.00 0.00 100 1012.9
20260904202800 63 154 6.4 12.9 0.00 0.00 0.00 100 1012.9
20260904202029 64 109 1.6 12.9 0.00 0.00 0.00 100 1013.0
20260904201528 63 151 8.0 14.5 0.00 0.00 0.00 100 1013.1
20260904201028 63 199 4.8 14.5 0.00 0.00 0.00 100 1013.1
20260904200521 63 112 6.4 19.3 0.00 0.00 0.00 100 1013.2
20260904200019 63 150 8.0 19.3 0.00 0.00 0.00 100 1013.3
20260904195519 63 137 4.8 17.7 0.00 0.00 0.00 100 1013.4
20260904195004 63 125 8.0 17.7 0.00 0.00 0.00 100 1013.4
20260904194505 63 115 4.8 16.1 0.00 0.00 0.00 100 1013.4
20260904194002 63 240 1.6 16.1 0.00 0.00 0.00 100 1013.5
20260904193502 63 171 9.7 16.1 0.00 0.00 0.00 100 1013.5
20260904193001 63 154 8.0 16.1 0.00 0.00 0.00 100 1013.6
20260904192501 63 165 9.7 14.5 0.00 0.00 0.00 100 1013.6
20260904192000 63 137 4.8 9.7 0.00 0.00 0.00 100 1013.9
20260904191459 63 182 1.6 11.3 0.00 0.00 0.00 100 1013.9
20260904190958 63 119 6.4 14.5 0.00 0.00 0.00 100 1014.1
20260904190457 63 132 4.8 19.3 0.00 0.00 0.00 100 1014.1
20260904185958 63 171 9.7 19.3 0.00 0.00 0.00 100 1014.1
20260904185457 63 142 9.7 14.5 0.00 0.00 0.00 100 1014.1
20260904184957 63 70 1.6 14.5 0.00 0.00 0.00 100 1014.2
20260904184457 63 115 9.7 14.5 0.00 0.00 0.00 100 1014.3
20260904183957 63 136 3.2 14.5 0.00 0.00 0.00 100 1014.4
20260904183458 63 146 8.0 14.5 0.00 0.00 0.00 100 1014.4
20260904182957 63 187 8.0 14.5 0.00 0.00 0.00 100 1014.4
20260904182458 63 113 0.0 12.9 0.00 0.00 0.00 100 1014.3
20260904181954 63 172 3.2 12.9 0.00 0.00 0.00 100 1014.4
20260904181453 63 81 0.0 12.9 0.00 0.00 0.00 100 1014.4
20260904180943 63 123 0.0 11.3 0.00 0.00 0.00 100 1014.5
20260904180442 63 140 8.0 11.3 0.00 0.00 0.00 100 1014.6
20260904175940 63 161 1.6 9.7 0.00 0.00 0.00 100 1014.7
20260904175435 63 175 8.0 9.7 0.00 0.00 0.00 100 1014.7
20260904175205 63 165 0.0 14.5 0.00 0.00 0.00 100 1014.8
20260904174413 63 164 3.2 14.5 0.00 0.00 0.00 100 1014.9
20260904174144 63 164 4.8 12.9 0.00 0.00 0.00 100 1014.9
20260904173413 63 150 1.6 11.3 0.00 0.00 0.00 100 1014.9
20260904172902 63 154 8.0 12.9 0.00 0.00 0.00 100 1015.0
20260904172402 63 165 6.4 16.1 0.00 0.00 0.00 100 1015.0
20260904171901 63 170 9.7 16.1 0.00 0.00 0.00 100 1015.1
20260904171402 63 181 8.0 14.5 0.00 0.00 0.00 100 1015.1
20260904170902 62 167 6.4 14.5 0.00 0.00 0.00 100 1015.1
20260904170402 62 151 8.0 14.5 0.00 0.00 0.00 100 1015.1
20260904165859 62 88 0.0 9.7 0.00 0.00 0.00 100 1015.1
20260904165358 62 133 1.6 11.3 0.00 0.00 0.00 100 1015.1
20260904165116 62 111 3.2 11.3 0.00 0.00 0.00 100 1015.1
20260904164328 62 163 0.0 12.9 0.00 0.00 0.00 100 1015.0
20260904163826 62 192 4.8 12.9 0.00 0.00 0.00 100 1015.0
20260904163327 62 172 0.0 6.4 0.00 0.00 0.00 100 1015.0
20260904162757 62 172 3.2 9.7 0.00 0.00 0.00 100 1015.0
20260904162513 62 133 4.8 12.9 0.00 0.00 0.00 100 1015.0
20260904161742 62 151 3.2 12.9 0.00 0.00 0.00 100 1015.0
20260904161237 62 125 3.2 11.3 0.00 0.00 0.00 100 1015.0
20260904160738 62 123 3.2 11.3 0.00 0.00 0.00 100 1014.9
20260904160232 62 229 3.2 11.3 0.00 0.00 0.00 100 1014.9
20260904155731 62 243 3.2 14.5 0.00 0.00 0.00 100 1015.0
20260904155225 62 216 3.2 14.5 0.00 0.00 0.00 100 1014.9
20260904154726 62 125 1.6 14.5 0.00 0.00 0.00 100 1014.9
20260904154225 62 136 0.0 12.9 0.00 0.00 0.00 100 1014.8
20260904153725 62 212 3.2 9.7 0.00 0.00 0.00 100 1014.9
20260904153213 62 147 0.0 1.6 0.00 0.00 0.00 100 1014.8
20260904152651 62 147 0.0 12.9 0.00 0.00 0.00 100 1014.8
20260904152419 62 182 4.8 12.9 0.00 0.00 0.00 100 1014.8
20260904151648 62 191 3.2 11.3 0.00 0.00 0.00 100 1014.7
20260904151419 62 140 0.0 12.9 0.00 0.00 0.00 100 1014.7
20260904150644 62 133 0.0 12.9 0.00 0.00 0.00 100 1014.8
20260904150415 62 178 8.0 19.3 0.00 0.00 0.00 100 1014.7
20260904145643 62 175 3.2 19.3 0.00 0.00 0.00 100 1014.7
20260904145132 62 239 0.0 14.5 0.00 0.00 0.00 100 1014.7
20260904144629 62 225 6.4 14.5 0.00 0.00 0.00 100 1014.7
20260904144129 62 165 0.0 9.7 0.00 0.00 0.00 100 1014.7
20260904143623 62 172 0.0 6.4 0.00 0.00 0.00 100 1014.7
20260904143110 62 164 1.6 8.0 0.00 0.00 0.00 100 1014.7
20260904142611 62 163 0.0 9.7 0.00 0.00 0.00 100 1014.7
20260904142335 62 163 3.2 11.3 0.00 0.00 0.00 100 1014.8
20260904141600 62 247 0.0 11.3 0.00 0.00 0.00 100 1014.8
20260904141058 62 192 1.6 6.4 0.00 0.00 0.00 100 1014.7
20260904140551 62 112 0.0 4.8 0.00 0.00 0.00 100 1014.8
20260904140048 62 112 0.0 4.8 0.00 0.00 0.00 100 1014.8
20260904135540 62 112 0.0 0.0 0.00 0.00 0.00 100 1014.8
20260904135308 62 112 0.0 0.0 0.00 0.00 0.00 1 1014.8
20260904134534 62 112 0.0 0.0 0.00 0.00 0.00 1 1014.7
20260904134025 62 112 0.0 0.0 0.00 0.00 0.00 2 1014.8
20260904133522 62 112 0.0 0.0 0.00 0.00 0.00 2 1014.8
20260904133020 62 112 0.0 0.0 0.00 0.00 0.00 3 1014.8
20260904132519 62 112 0.0 0.0 0.00 0.00 0.00 3 1014.8
20260904132018 62 112 0.0 0.0 0.00 0.00 0.00 3 1014.8
20260904131507 62 112 0.0 0.0 0.00 0.00 0.00 3 1014.8
20260904131009 62 112 0.0 0.0 0.00 0.00 0.00 2 1014.7
20260904131005 62 112 0.0 0.0 0.00 0.00 0.00 1 1014.7
20260904130001 62 112 0.0 0.0 0.00 0.00 0.00 1 1014.7
20260904125456 62 112 0.0 0.0 0.00 0.00 0.00 100 1014.7
20260904125221 62 112 0.0 0.0 0.00 0.00 0.00 100 1014.7
20260904124439 62 112 0.0 0.0 0.00 0.00 0.00 100 1014.6
20260904123937 62 112 0.0 0.0 0.00 0.00 0.00 100 1014.5